Location: ?
(35.3544°N, 139.4507°E)
Time: 02:10:04
(UTC+00:00)

Resurs 1-4 Rocket - Pass Details

Date: 03 August 2024
Orbit: 798 x 813 km, 98.8° (Epoch: 18 September)

Event Time Altitude Azimuth Distance (km) Brightness Sun altitude
Rises 17:21:54 0° 2° (N) 3,341 6.1 -26.1°
Reaches altitude 10° 17:24:24 10° 354° (N) 2,404 5.1 -25.7°
Enters shadow 17:28:57 35° 296° (WNW) 1,290 3.0 -25.1°
